User: anonymous   Login
Location: Choisy
(48.7685°N, 2.4187°E)
Time: 10:27:17
(UTC+00:00)
Language:

BlueWalker 3 - Orbit

View from above orbital plane
View from above orbital plane
View from above satellite
View from above satellite

Ground track
Ground track

The orbit data is extracted from the following two-line orbital elements,

1 53807U 22111AL  24115.28649059  .00012676  00000-0  50971-3 0  9993
2 53807  53.2377  81.8562 0007305 302.0772  57.9518 15.25268198 90009
Epoch (UTC): 24 April 2024 06:52:32
Eccentricity: 0.0007305
inclination: 53.2377°
perigee height: 485 km
apogee height: 495 km
right ascension of ascending node: 81.8562°
argument of perigee: 302.0772°
revolutions per day: 15.25268198
mean anomaly at epoch: 57.9518°
orbit number at epoch: 9000

The dashed part of the orbit path shows where the satellite is in the earth's shadow,  

DLR